Location: Bondieuse
(47.3179°N, 3.2196°E)
Time: 07:54:00
(UTC+00:00)

Daily predictions for brighter satellites

Satellite Brightness Start Highest point End
(mag) Time Altitude Azimuth Time Altitude Azimuth Time Altitude Azimuth
Cosmos 1975 3.5 20:00:31 10° N 20:04:24 41° ENE 20:08:13 10° SSE
STARLINK-1076 4.0 20:00:41 10° WNW 20:04:49 63° NNE 20:08:56 10° ESE
Cosmos 1703 Rocket 3.6 20:01:27 10° S 20:05:41 57° E 20:09:56 10° NNE
CREW DRAGON DEMO-1 DEB 3.1 20:03:05 10° WNW 20:06:09 59° SSW 20:09:12 10° SE
MOS 1 Rocket 3.4 20:02:55 10° N 20:07:26 74° WNW 20:11:45 10° SSW
STARLINK-1159 4.4 20:03:30 10° WNW 20:07:27 44° SW 20:11:23 10° SSE
STARLINK-1206 4.2 20:04:12 10° SSW 20:08:00 36° SE 20:11:49 10° ENE
Okean 2 Rocket 4.4 20:05:46 10° NNE 20:09:27 25° ENE 20:13:04 10° SE
STARLINK-1092 3.9 20:05:39 10° WNW 20:09:46 67° NNE 20:13:54 10° ESE
BREEZE-M DEB (TANK) 3.5 20:03:46 10° WSW 20:11:38 71° SSE 20:15:13 10° ENE
STARLINK-1171 4.5 20:08:31 10° WNW 20:12:25 40° SW 20:16:18 10° SSE
STARLINK-1205 4.1 20:09:06 10° SSW 20:12:57 39° SE 20:16:50 10° ENE
Okean 1 3.3 20:10:13 10° S 20:14:14 73° E 20:18:17 10° NNE
STARLINK-1080 3.8 20:10:40 10° WNW 20:14:49 71° NNE 20:18:57 10° ESE
NOSS 2-3 (D) 4.0 20:10:53 10° SSW 20:14:54 43° ESE 20:19:33 10° NE
Cosmos 407 Rocket 3.6 20:09:32 10° NNW 20:14:54 80° ENE 20:20:16 10° SSE
Cosmos 2278 Rocket 3.0 20:11:55 10° SSE 20:16:48 31° ESE 20:21:43 10° NE
Cosmos 1908 Rocket 3.9 20:12:40 10° NNW 20:17:06 71° W 20:21:32 10° S
STARLINK-1218 4.0 20:13:58 10° SSW 20:17:53 42° SE 20:21:48 10° ENE
Cosmos 1634 Rocket 4.3 20:12:22 10° N 20:18:34 55° ENE 20:24:45 10° SSE
STARLINK-1090 3.8 20:15:37 10° WNW 20:19:46 75° NNE 20:23:55 10° ESE
Meteor 1-19 Rocket 4.4 20:14:40 10° S 20:20:08 59° E 20:25:48 10° NNE
STARLINK-1254 3.9 20:18:53 10° SW 20:22:50 45° SE 20:26:49 10° ENE
USA 215 4.4 20:17:54 10° ENE 20:23:56 41° N 20:29:59 10° NW
Cosmos 1844 Rocket 3.4 20:18:58 10° SW 20:24:33 59° WNW 20:30:10 10° NNE
STARLINK-1089 3.7 20:20:36 10° WNW 20:24:45 79° NNE 20:28:54 10° ESE
USA 229 DEB 3.7 20:19:02 10° SW 20:25:34 87° NW 20:32:31 10° NE
USA 229 3.7 20:19:09 10° SW 20:25:41 88° NW 20:32:37 10° NE
SPOT 5 4.2 20:21:51 10° ESE 20:26:15 29° ENE 20:30:47 10° N
STARLINK-1231 3.8 20:23:50 10° SW 20:27:49 49° SE 20:31:50 10° ENE
SPOT 3 Rocket 4.4 20:23:44 10° S 20:28:41 49° W 20:33:42 10° NNW
STARLINK-1107 3.7 20:25:35 10° WNW 20:29:44 84° NNE 20:33:44 11° ESE
Meteor 1-18 Rocket 4.2 20:25:43 10° S 20:31:16 84° E 20:36:57 10° NNE
SL-4 R/B 3.3 20:29:55 10° N 20:32:24 20° NE 20:34:47 10° E
STARLINK-1232 3.7 20:28:45 10° SW 20:32:47 53° SE 20:36:50 10° ENE
NOSS 3-1 (C) 3.6 20:27:35 10° SW 20:33:07 74° NW 20:39:37 10° NE
Cosmos 1515 3.6 20:30:43 10° S 20:34:31 74° E 20:38:20 10° NNE
NOSS 3-1 (A) 3.3 20:29:13 10° SSW 20:34:41 78° SE 20:41:07 10° NE
STARLINK-1066 3.6 20:30:35 10° WNW 20:34:44 89° NNE 20:38:33 12° ESE
Iridium 51 4.2 20:31:55 10° S 20:36:00 75° E 20:39:47 10° N
SPOT 1/Viking Rocket 3.9 20:31:18 11° SE 20:36:10 52° ENE 20:41:11 10° N
Tsikada Rocket 4.1 20:31:26 10° S 20:37:38 83° W 20:43:50 10° N
STARLINK-1208 3.6 20:33:41 10° SW 20:37:44 57° SE 20:41:49 10° ENE
Cosmos 1190 Rocket 4.1 20:32:38 10° NNW 20:37:52 81° WSW 20:43:04 10° SSE
STARLINK-1081 3.6 20:35:33 10° WNW 20:39:43 86° SSW 20:43:19 13° ESE
Landsat 7 3.9 20:35:30 11° SSE 20:40:02 64° ENE 20:44:46 10° N
Intercosmos 24 4.4 20:37:27 10° N 20:41:03 38° ENE 20:43:39 15° SE
Cosmos 1624 Rocket 4.0 20:36:11 10° SSW 20:41:29 77° ESE 20:46:50 10° NNE
STARLINK-1271 3.6 20:38:38 10° SW 20:42:42 62° SE 20:46:49 10° ENE
Meteor 1-4 Rocket 2.3 20:40:04 10° S 20:43:29 74° E 20:46:58 10° NNE
STARLINK-1070 3.6 20:40:31 10° WNW 20:44:41 81° SSW 20:48:05 15° SE
NOSS 2-3 (C) 3.6 20:41:15 10° SW 20:45:32 81° SE 20:50:39 10° NE
Cosmos 1140 Rocket 3.6 20:40:53 10° NNW 20:46:05 76° WSW 20:51:01 11° SSE
ERBS 3.2 20:44:06 10° S 20:46:55 26° SE 20:49:44 10° ENE
STARLINK-1154 3.5 20:43:36 10° SW 20:47:42 67° SSE 20:51:49 10° ENE
CARTOSAT-1 4.2 20:44:54 14° SE 20:48:13 41° ENE 20:52:18 10° N
STARLINK-1069 3.6 20:45:29 10° WNW 20:49:38 76° SSW 20:52:51 16° SE
COSMOS 2406 3.3 20:44:06 10° NNW 20:49:54 81° WSW 20:55:00 13° SSE
STARLINK-1116 4.5 20:47:45 10° WNW 20:51:48 48° NNE 20:55:49 10° E
ATLAS CENTAUR R/B 3.7 20:50:52 10° WNW 20:52:24 15° NNW 20:53:40 10° NNE
STARLINK-1197 3.5 20:48:32 10° SW 20:52:39 72° SSE 20:56:47 10° ENE
Meteor 2-4 Rocket 3.6 20:48:29 10° S 20:53:49 69° E 20:59:09 10° NNE
Crew Dragon 1.5 20:52:02 10° NW 20:54:00 32° NNE 20:55:49 12° E
STARLINK-1085 3.6 20:50:31 10° WNW 20:54:39 71° SSW 20:57:40 18° SE
IGS 5A 3.4 20:51:01 13° SSE 20:54:40 86° ENE 20:58:51 10° NNW
Cosmos 1371 Rocket 4.3 20:50:29 10° SSW 20:55:44 74° WNW 21:00:59 10° NNE
STARLINK-1198 3.5 20:53:29 10° SW 20:57:36 77° SSE 21:01:46 10° ENE
Okean 3 3.5 20:55:17 10° S 20:59:33 72° E 21:03:52 10° NNE
STARLINK-1086 3.7 20:55:29 10° WNW 20:59:36 66° SSW 21:02:26 19° SE
SL-8 R/B 3.8 20:55:43 10° W 21:00:32 81° N 21:05:23 10° E
STARLINK-1094 4.3 20:57:44 10° WNW 21:01:49 52° NNE 21:05:52 10° E
STARLINK-1199 3.5 20:58:27 10° WSW 21:02:36 82° SSE 21:06:46 10° ENE
SeaSat 1 4.0 21:00:43 10° ENE 21:03:52 17° ESE 21:05:00 16° ESE
ERS-1 Rocket 3.1 21:00:21 16° SSE 21:04:17 67° ENE 21:09:18 10° N
Cosmos 1954 Rocket 4.1 20:59:17 10° NNW 21:04:33 81° WSW 21:08:46 16° SSE
STARLINK-1095 3.8 21:00:29 10° WNW 21:04:34 61° SW 21:07:13 21° SE
Cosmos 1544 4.2 21:02:03 10° NNW 21:05:29 39° W 21:08:53 10° SSW
STARLINK-1117 4.2 21:02:43 10° WNW 21:06:48 54° NNE 21:10:39 11° E
Cosmos 1300 Rocket 3.6 21:02:39 10° N 21:07:08 78° E 21:10:24 18° SSE
SAR-Lupe-2 3.7 21:03:50 10° N 21:07:26 77° WNW 21:11:02 10° SSW
STARLINK-1210 3.5 21:03:27 10° WSW 21:07:35 87° SSE 21:11:45 10° ENE
STARLINK-1077 3.8 21:05:27 10° WNW 21:09:30 57° SW 21:11:59 22° SE
STARLINK-1200 4.5 21:06:37 10° SSW 21:10:09 28° SE 21:13:42 10° ENE
STARLINK-1078 4.1 21:07:41 10° WNW 21:11:48 57° NNE 21:15:25 13° E
ISS -3.3 21:09:11 10° WNW 21:12:31 58° NNE 21:15:06 16° E
STARLINK-1219 3.6 21:08:24 10° WSW 21:12:33 88° NNW 21:16:43 10° ENE
Spot 2 Rocket 4.0 21:07:55 11° S 21:12:40 57° W 21:17:38 10° NNW
STARLINK-1075 3.9 21:10:27 10° WNW 21:14:29 53° SW 21:16:46 23° SSE
STARLINK-1192 4.4 21:11:29 10° SSW 21:15:06 30° SE 21:18:44 10° ENE
STARLINK-1108 4.1 21:12:40 10° WNW 21:16:47 59° NNE 21:20:12 14° E
STARLINK-1211 3.7 21:13:22 10° WSW 21:17:31 83° NNW 21:21:41 10° ENE
Cosmos 676 Rocket 4.4 21:12:50 10° NNW 21:18:00 61° WSW 21:22:02 17° S
USA 245 4.0 21:15:37 13° SSW 21:18:32 38° WSW 21:21:24 10° NNW
STARLINK-1093 4.0 21:15:28 10° WNW 21:19:28 49° SW 21:21:34 25° SSE
STARLINK-1244 4.3 21:16:20 10° SSW 21:20:01 32° SE 21:23:45 10° ENE
Cosmos 2221 Rocket 3.8 21:16:14 10° SSW 21:20:44 74° W 21:25:17 10° N
STARLINK-1071 4.0 21:17:39 10° WNW 21:21:47 62° NNE 21:24:59 16° ESE
STARLINK-1245 3.7 21:18:22 10° WSW 21:22:31 79° NNW 21:26:41 10° ENE
Cosmos 1674 Rocket 3.8 21:20:51 22° SSE 21:23:25 53° E 21:27:43 10° NNE
Cosmos 2056 Rocket 4.4 21:19:24 10° SW 21:24:21 50° WNW 21:29:21 10° NNE
STARLINK-1074 4.1 21:20:27 10° WNW 21:24:24 45° SW 21:26:20 26° SSE
Terra 1.9 21:21:43 22° SSE 21:24:42 64° ENE 21:29:25 10° N
STARLINK-1212 4.3 21:21:53 10° W 21:24:50 39° NNW 21:27:48 10° NE
STARLINK-1138 4.2 21:21:12 10° SSW 21:24:58 35° SE 21:28:45 10° ENE
STARLINK-1105 4.3 21:22:21 10° W 21:25:17 39° NNW 21:28:14 10° NE
STARLINK-1110 3.9 21:21:48 10° WNW 21:25:56 65° NNE 21:28:57 18° ESE
STARLINK-1247 4.4 21:23:14 10° W 21:26:12 39° NNW 21:29:11 10° NE
Cosmos 2082 Rocket 2.2 21:20:41 10° NNW 21:26:26 81° ENE 21:30:10 23° SSE
STARLINK-1227 4.4 21:23:42 10° W 21:26:39 39° NNW 21:29:36 10° NE
STARLINK-1233 3.8 21:23:21 10° WSW 21:27:30 74° NNW 21:31:39 10° ENE
STARLINK-1226 4.4 21:24:36 10° W 21:27:33 38° NNW 21:30:31 10° NE
Resurs 01 Rocket 4.0 21:25:06 10° SW 21:28:14 19° W 21:31:24 10° NW
STARLINK-1215 4.4 21:25:31 10° W 21:28:28 38° NNW 21:31:26 10° NE
Lacrosse 5 1.9 21:24:09 10° NW 21:29:15 84° NE 21:32:31 22° SE
STARLINK-1143 4.1 21:26:06 10° SSW 21:29:56 38° SE 21:33:47 10° ENE
Cosmos 1378 Rocket 3.9 21:28:01 25° SSE 21:30:15 48° E 21:34:30 10° NNE
STARLINK-1217 4.4 21:27:20 10° W 21:30:16 38° NNW 21:33:13 10° NE
STARLINK-1203 4.0 21:26:26 10° SSW 21:30:22 39° SE 21:34:17 10° ENE
STARLINK-1229 4.5 21:28:13 10° W 21:31:10 37° NNW 21:34:07 10° NE
Abrixas rocket 2.2 21:28:25 10° W 21:31:22 68° N 21:33:32 17° E
STARLINK-1124 3.8 21:27:35 10° WNW 21:31:45 69° NNE 21:34:32 20° ESE
STARLINK-1270 4.5 21:29:07 10° W 21:32:04 37° NNW 21:35:01 10° NE
STARLINK-1204 3.9 21:28:22 10° WSW 21:32:30 70° NNW 21:36:39 10° ENE
Cosmos 1833 Rocket 3.0 21:27:22 10° NNW 21:32:53 59° WSW 21:36:38 21° S
STARLINK-1088 4.4 21:30:28 10° WNW 21:34:19 38° SW 21:35:55 27° S
STARLINK-1241 3.9 21:31:00 10° SSW 21:34:53 41° SE 21:38:47 10° ENE
STARLINK-1122 3.7 21:32:35 10° WNW 21:36:45 73° NNE 21:39:20 22° ESE
STARLINK-1238 4.0 21:33:21 10° WSW 21:37:28 67° NNW 21:41:37 10° ENE
STARLINK-1115 4.5 21:35:27 10° WNW 21:39:16 36° SW 21:40:40 27° S
STARLINK-1239 3.9 21:35:55 10° SW 21:39:51 44° SE 21:43:48 10° ENE
Cosmos 1805 4.1 21:37:28 10° N 21:41:08 36° ENE 21:42:30 28° ESE
Nadezhda 4 Rocket 4.0 21:37:08 21° SSE 21:41:16 63° E 21:47:20 10° NNE
STARLINK-1126 3.7 21:37:29 10° WNW 21:41:38 77° NNE 21:44:02 24° ESE
Cosmos 1975 Rocket 4.5 21:40:41 21° ESE 21:41:52 24° E 21:45:24 10° NE
Cosmos 1378 4.0 21:41:31 30° ESE 21:42:19 33° E 21:45:42 10° NNE
STARLINK-1201 4.1 21:38:21 10° WSW 21:42:27 63° NNW 21:46:35 10° ENE
Cosmos 2369 Rocket 4.0 21:41:46 14° ESE 21:42:32 14° E 21:45:25 10° ENE
Cosmos 371 Rocket 3.3 21:38:45 11° SSW 21:43:22 87° WNW 21:48:17 10° NNE
MTI 3.7 21:40:48 10° NNE 21:43:56 59° E 21:44:37 45° SSE
STARLINK-1240 3.8 21:40:49 10° SW 21:44:48 48° SE 21:48:48 10° ENE
STARLINK-1082 3.6 21:42:32 10° WNW 21:46:42 82° NNE 21:48:53 27° ESE
STARLINK-1206 4.2 21:43:21 10° WSW 21:47:28 60° NNW 21:51:34 10° ENE
Meteor 1-15 Rocket 4.3 21:41:34 10° N 21:47:33 87° E 21:51:09 25° SSE
Okean 2 Rocket 4.4 21:43:33 10° NNW 21:47:37 35° W 21:50:52 14° SSW
Cosmos 1066 Rocket 4.1 21:44:45 23° S 21:48:08 69° E 21:53:28 10° NNE
Cosmos 1943 Rocket 3.4 21:48:17 21° ESE 21:49:23 22° E 21:53:33 10° NE
STARLINK-1216 3.7 21:45:44 10° SW 21:49:46 52° SE 21:53:47 10° ENE
STARLINK-1100 3.6 21:47:30 10° WNW 21:51:41 87° NNE 21:53:40 30° ESE
STARLINK-1205 4.3 21:48:22 10° W 21:52:27 57° NNW 21:56:33 10° ENE
Thor Agena Rocket 4.3 21:49:33 10° NNE 21:54:29 37° E 21:56:23 28° SE
STARLINK-1237 3.6 21:50:40 10° SW 21:54:43 56° SE 21:58:47 10° ENE
Cosmos 1452 Rocket 3.7 21:49:52 10° SSW 21:55:08 73° WNW 22:00:27 10° NNE
Okean 2 4.3 21:55:05 30° ESE 21:55:59 33° E 21:59:43 10° NNE
STARLINK-1083 3.5 21:52:29 10° WNW 21:56:39 88° SSW 21:58:27 33° ESE
STARLINK-1218 4.4 21:53:21 10° W 21:57:25 55° NNW 22:01:30 10° ENE
STARLINK-1202 3.5 21:55:37 10° SW 21:59:42 60° SE 22:03:48 10° ENE
Cosmos 2278 Rocket 3.2 21:55:12 10° SW 22:00:40 48° NW 22:06:11 10° NNE
STARLINK-1125 3.5 21:57:28 10° WNW 22:01:38 83° SSW 22:03:14 36° SE
STARLINK-1254 4.5 21:58:22 10° W 22:02:25 52° NNW 22:06:30 10° ENE
Okean 1 Rocket 3.1 21:58:16 10° NNW 22:02:46 77° W 22:04:43 33° S
SPOT 5 3.8 22:00:51 20° SSW 22:04:05 44° W 22:09:10 10° NNW
Aureole 2 4.1 22:01:38 10° NNW 22:05:00 74° ENE 22:05:25 61° SE
Cosmos 1437 Rocket 3.4 22:02:48 20° SW 22:05:06 49° WNW 22:08:49 10° N
SL-4 R/B 2.4 22:02:45 10° NW 22:05:37 31° WSW 22:05:51 31° SW
USA 215 3.4 22:00:55 15° ESE 22:06:27 74° NNE 22:13:00 10° NW
STARLINK-1109 3.5 22:02:26 10° WNW 22:06:36 78° SSW 22:08:00 40° SE
STARLINK-1246 3.5 22:05:30 10° SW 22:09:37 70° SSE 22:13:45 10° ENE
STARLINK-1091 3.5 22:07:26 10° WNW 22:11:35 73° SSW 22:12:47 44° SE
NOSS 2-2 (D) 4.0 22:12:35 32° E 22:12:35 32° E 22:15:34 10° NE
STARLINK-1097 4.5 22:09:42 10° WNW 22:13:45 49° NNE 22:17:02 15° E
Cosmos 1455 Rocket 3.7 22:10:25 10° N 22:14:35 42° ENE 22:15:52 33° ESE
STARLINK-1224 3.4 22:10:29 10° SW 22:14:36 75° SSE 22:18:45 10° ENE
STARLINK-1072 3.6 22:12:25 10° WNW 22:16:33 68° SSW 22:17:34 47° SSE
STARLINK-1099 4.4 22:14:41 10° WNW 22:18:45 51° NNE 22:21:49 16° E
STARLINK-1225 3.4 22:15:25 10° SW 22:19:34 80° SSE 22:23:43 10° ENE
deb Kosmos-1763 4.0 22:16:17 10° NNW 22:19:53 72° WSW 22:20:28 56° S
Cosmos 1092 Rocket 3.9 22:17:01 29° S 22:20:19 78° E 22:26:29 10° N
STARLINK-1096 3.6 22:17:26 10° WNW 22:21:32 63° SW 22:22:22 50° SSE
ERBS 3.5 22:19:54 10° WSW 22:23:05 42° NNW 22:26:16 10° NE
STARLINK-1104 4.3 22:19:40 10° WNW 22:23:45 53° NNE 22:26:36 18° E
Aureole 2 Rocket 2.2 22:23:48 62° WSW 22:24:11 73° WNW 22:27:17 10° NNE
STARLINK-1230 3.5 22:20:25 10° WSW 22:24:33 85° SSE 22:28:43 10° ENE
BREEZE-M DEB (TANK) 3.5 22:10:04 10° WSW 22:24:58 80° SSE 22:28:49 10° ENE
STARLINK-1079 3.7 22:22:25 10° WNW 22:26:30 58° SW 22:27:08 51° S
BREEZE-M DEB (TANK) 4.1 22:24:52 33° S 22:26:34 49° SE 22:38:23 10° ENE
Crew Dragon 3.1 22:25:37 10° WNW 22:25:55 13° W 22:25:55 13° W
Cosmos 1766 3.3 22:24:06 10° NNW 22:28:04 75° W 22:29:02 49° SSW
ATLAS 3B R/B 4.4 22:22:24 10° NNW 22:28:10 29° NNE 22:34:02 10° E
STARLINK-1144 4.2 22:24:39 10° WNW 22:28:45 56° NNE 22:31:23 20° E
EXPRESS MD2 4.0 22:25:19 10° WSW 22:29:14 73° SSE 22:37:28 10° ENE
STARLINK-1243 3.5 22:25:23 10° WSW 22:29:32 90° NW 22:33:42 10° ENE
Cosmos 304 Rocket 4.0 22:26:45 23° SW 22:29:41 68° WNW 22:34:28 10° NNE
SL-4 R/B 3.1 22:30:57 18° NE 22:30:57 18° NE 22:31:55 10° NNE
NOSS 2-2 (E) 3.0 22:30:15 60° SSE 22:30:39 66° SE 22:34:40 10° NE
STARLINK-1116 3.7 22:27:24 10° WNW 22:31:27 54° SW 22:31:55 51° S
CENTAUR R/B 3.8 22:23:57 10° NW 22:31:32 50° NE 22:39:56 10° ESE
Cosmos 1271 Rocket 4.1 22:33:25 25° E 22:33:28 25° E 22:36:42 10° NE
STARLINK-1103 4.1 22:29:38 10° WNW 22:33:44 58° NNE 22:36:10 23° E
STARLINK-1236 3.6 22:30:22 10° WSW 22:34:30 85° NNW 22:38:41 10° ENE
Cosmos 1953 4.1 22:34:52 10° NNE 22:37:59 21° ENE 22:39:00 19° E
STARLINK-1101 4.0 22:34:36 10° WNW 22:38:43 61° NNE 22:40:56 25° E
Cosmos 1733 3.3 22:37:32 10° NNW 22:41:21 67° W 22:41:59 55° SSW
Cosmos 1707 4.0 22:41:12 27° E 22:41:22 27° E 22:44:42 10° NNE
STARLINK-1094 3.9 22:37:25 10° WNW 22:41:24 46° SW 22:41:29 46° SSW
ALOS 2 3.3 22:40:11 34° ESE 22:41:29 45° ENE 22:45:41 10° N
Cosmos 1242 Rocket 3.2 22:41:38 41° E 22:41:38 41° E 22:45:06 10° NNE
Cosmos 2195 Rocket 4.5 22:38:26 30° S 22:41:49 85° W 22:48:09 10° N
SeaSat 1 2.5 22:36:56 10° NNE 22:41:54 78° WNW 22:44:46 25° SW
SL-8 R/B 3.6 22:38:23 10° WNW 22:43:14 89° NNE 22:46:22 22° ESE
STARLINK-1102 3.9 22:39:35 10° WNW 22:43:43 64° NNE 22:45:43 28° E
STARLINK-1269 3.7 22:40:19 10° WSW 22:44:27 76° NNW 22:48:37 10° ENE
BREEZE M DEB (TANK) 3.2 22:42:49 10° W 22:45:07 34° W 22:45:07 34° W
STARLINK-1117 4.1 22:42:24 10° WNW 22:46:16 43° SW 22:46:16 43° SW
Cosmos 1758 3.8 22:43:35 10° N 22:47:32 48° ENE 22:48:13 43° ESE
STARLINK-1111 3.8 22:44:35 10° WNW 22:48:43 68° NNE 22:50:31 32° E
ISS -2.1 22:46:08 10° WNW 22:48:01 25° WSW 22:48:01 25° WSW
STARLINK-1200 3.8 22:45:20 10° WSW 22:49:28 72° NNW 22:53:37 10° ENE
Cosmos 1110 Rocket 4.3 22:46:21 23° SW 22:49:30 62° WNW 22:54:40 10° NNE
Cosmos 1461 3.2 22:47:43 27° SW 22:49:54 66° NW 22:54:16 10° NNE
Cosmos 1544 Rocket 3.5 22:46:13 10° N 22:50:33 72° E 22:51:28 53° SE
S3M 4.4 22:44:49 10° N 22:50:50 52° ENE 22:53:32 31° SE
STARLINK-1078 4.3 22:47:25 10° WNW 22:51:03 39° SW 22:51:03 39° SW
Cosmos 1428 Rocket 4.5 22:49:03 33° S 22:52:05 89° W 22:58:26 10° N
NOSS 2-2 (C) 3.0 22:53:12 66° SW 22:53:41 89° ESE 22:57:42 10° NE
STARLINK-1073 3.8 22:49:33 10° WNW 22:53:43 72° NNE 22:55:18 36° E
Cosmos 1655 Rocket 4.4 22:51:31 33° SE 22:53:51 48° E 22:59:49 10° NNE
ATLAS 2AS CENTAUR R/B 3.8 22:51:57 28° SE 22:54:18 34° ESE 23:01:13 10° NE
STARLINK-1192 3.9 22:50:20 10° WSW 22:54:27 68° NNW 22:58:36 10° ENE
Cosmos 968 Rocket 4.0 22:50:44 10° NNW 22:55:48 52° ENE 22:57:53 32° ESE
OPS 6432 4.3 22:53:05 10° NW 22:56:14 86° NE 22:56:26 78° ESE
STARLINK-1108 4.4 22:52:25 10° WNW 22:55:50 35° SW 22:55:50 35° SW
Cosmos 2297 4.3 22:53:23 16° SW 22:57:54 56° WNW 23:03:32 10° NNE
STARLINK-1121 3.7 22:54:31 10° WNW 22:58:41 76° NNE 23:00:03 40° ESE
STARLINK-1244 4.0 22:55:19 10° WSW 22:59:26 64° NNW 23:03:34 10° ENE
NOSS 3-2 (A) 4.0 22:53:17 10° NW 23:00:48 90° SW 23:05:46 28° SE
Terra 3.9 23:00:36 13° WSW 23:02:53 17° W 23:05:56 10° NW
Cosmos 292 Rocket 4.0 23:02:16 46° SE 23:03:05 52° ESE 23:07:48 10° NNE
STARLINK-1106 3.6 22:59:31 10° WNW 23:03:40 80° NNE 23:04:51 46° ESE
STARLINK-1138 4.1 23:00:18 10° WSW 23:04:25 61° NNW 23:08:32 10° ENE
SL-4 R/B 4.5 23:06:52 14° E 23:06:52 14° E 23:07:58 10° E
Abrixas rocket 4.1 23:03:59 10° WNW 23:05:01 19° W 23:05:01 19° W
Cosmos 1553 Rocket 3.9 23:01:38 10° N 23:08:00 89° W 23:10:34 39° S
STARLINK-1112 3.5 23:04:31 10° WNW 23:08:40 85° NNE 23:09:39 52° ESE
USA 238 DEB 3.8 23:01:31 10° NW 23:08:45 83° SW 23:12:35 32° SSE
USA 238 3.8 23:01:37 10° NW 23:08:51 84° SW 23:12:42 32° SSE
STARLINK-1143 4.2 23:05:19 10° WSW 23:09:25 58° NNW 23:13:31 10° ENE
Cosmos 1486 Rocket 4.0 23:04:07 10° NNW 23:09:28 84° ENE 23:11:11 44° SSE
Cosmos 2082 Rocket 4.1 23:06:11 10° WNW 23:09:48 17° W 23:12:01 14° SW
STARLINK-1203 4.2 23:05:56 10° W 23:10:05 58° NNW 23:14:15 10° ENE
Cosmos 2292 Rocket 4.4 23:10:01 33° ESE 23:10:21 33° E 23:13:44 10° NNE
Cosmos 1470 2.6 23:06:31 10° NNW 23:10:26 81° W 23:10:45 72° SSW
Spot 4 4.4 23:10:10 38° SW 23:11:31 49° W 23:16:15 10° NNW
Lacrosse 5 3.3 23:07:54 10° WNW 23:11:41 21° SW 23:11:42 21° SW
Cosmos 2026 Rocket 4.3 23:09:19 28° SSW 23:12:37 60° WNW 23:18:54 10° N
EO 1 Del DPAF 4.3 23:09:08 10° N 23:12:39 37° WNW 23:13:46 30° WSW
STARLINK-1128 3.5 23:09:30 10° WNW 23:13:39 90° NE 23:14:26 58° ESE
STARLINK-1241 4.3 23:10:20 10° W 23:14:25 55° NNW 23:18:30 10° ENE
Cosmos 1302 Rocket 4.1 23:15:08 36° SW 23:17:20 74° WNW 23:22:41 10° NNE
STARLINK-1113 3.5 23:14:28 10° WNW 23:18:37 85° SSW 23:19:12 65° SE
STARLINK-1239 4.4 23:15:21 10° W 23:19:25 53° NNW 23:23:29 10° ENE
Cosmos 1975 Rocket 4.2 23:17:49 27° WSW 23:19:32 37° WNW 23:23:40 10° N
ATLAS CENTAUR R/B 3.5 23:23:07 16° E 23:23:07 16° E 23:24:57 10° ENE
STARLINK-1119 3.4 23:19:27 10° WNW 23:23:36 80° SSW 23:23:59 70° SSE
STARLINK-1240 4.4 23:20:22 10° W 23:24:24 51° NNW 23:28:28 10° ENE
Cosmos 2369 Rocket 2.1 23:23:31 40° SSW 23:25:41 87° ESE 23:31:24 10° NNE
STARLINK-1114 3.4 23:24:25 10° WNW 23:28:34 75° SSW 23:28:45 73° S
Cosmos 1943 Rocket 2.5 23:29:45 29° SW 23:32:37 63° WNW 23:38:11 10° NNE
STARLINK-1130 (DARKSAT) 3.5 23:29:24 10° WNW 23:33:32 70° SSW 23:33:32 70° SSW
ATLAS CENTAUR R/B 4.2 23:34:58 10° N 23:36:01 12° NNE 23:37:18 10° NE
SL-27 R/B 3.3 23:33:16 10° NW 23:36:21 39° W 23:36:21 39° W
STARLINK-1084 3.6 23:34:23 10° WNW 23:38:18 64° SW 23:38:18 64° SW
BREEZE-M DEB 4.1 23:38:35 10° W 23:42:16 77° N 23:55:57 10° E
Cosmos 2266 Rocket 3.9 23:40:00 41° S 23:42:17 80° E 23:48:22 10° N
STARLINK-1098 3.7 23:39:24 10° WNW 23:43:07 57° WSW 23:43:07 57° WSW
Helios 1A 2.9 23:43:07 63° SSW 23:43:39 74° WSW 23:47:52 10° NNW
Cosmos 546 4.5 23:39:48 10° WNW 23:43:38 82° SW 23:43:38 82° SW
Landsat 4 3.5 23:43:59 10° NNE 23:47:44 83° ESE 23:47:49 81° SE
Cosmos 1726 2.0 23:44:34 10° NNW 23:48:16 76° W 23:48:18 76° WSW
Cosmos 1992 Rocket 3.9 23:46:54 48° SSW 23:48:23 85° ESE 23:53:37 10° NNE
STARLINK-1123 3.9 23:44:23 10° WNW 23:47:53 50° WSW 23:47:53 50° WSW
COSMOS 2487 3.0 23:45:56 10° N 23:49:19 47° ENE 23:49:33 46° E
USA 215 3.7 23:48:14 36° SSW 23:49:46 41° SW 23:55:54 10° WNW
CZ-4 R/B 4.2 23:48:22 10° NNE 23:53:05 50° E 23:54:05 42° SE
STARLINK-1097 4.1 23:49:21 10° WNW 23:52:39 45° WSW 23:52:39 45° WSW
Meteor 2-19 Rocket 4.4 23:51:23 40° SSW 23:53:47 86° WNW 23:59:57 10° N
